Regional Weather Roundup
Issued by NWS

Home | Current Version | Previous Version | Graphics & Text | Print | Product List | Glossary On
Versions: 1 2 3 4 5 6 7 8 9 10 11 12 13 14 15 16 17 18 19 20 21 22 23 24 25 26 27 28 29 30 31 32 33 34 35 36 37 38 39 40 41 42 43 44 45 46 47 48 49 50
000
ASUS43 KLOT 021408
RWRIL

ILLINOIS REGIONAL WEATHER ROUNDUP
NATIONAL WEATHER SERVICE CHICAGO/ROMEOVILLE IL
900 AM CDT MON MAY 02 2016

NOTE: "FAIR" INDICATES FEW OR NO CLOUDS BELOW 12,000 FEET WITH NO
SIGNIFICANT WEATHER AND/OR OBSTRUCTIONS TO VISIBILITY.

* THESE STATIONS ARE NOT UNDER NWS QUALITY CONTROL. THEY ALSO MAY NOT
  REPORT WEATHER SUCH AS PRECIPITATION OR FOG.

ILZ001-002-007-009-015-016-024-021500-
NORTHWEST ILLINOIS

CITY           SKY/WX    TMP DP  RH WIND       PRES   REMARKS
MOLINE         CLOUDY    50  45  83 NE6       30.09R
STERLING*      CLOUDY    50  46  87 NE7       30.09R
SAVANNA*       CLOUDY    51  44  77 N9        30.09S
$$

ILZ003-004-008-010-011-017-018-021500-
NORTH CENTRAL ILLINOIS

CITY           SKY/WX    TMP DP  RH WIND       PRES   REMARKS
ROCKFORD       MOSUNNY   53  39  59 NE12      30.10R
FREEPORT*      SUNNY     50  43  76 N7        30.11R
ROCHELLE*      CLOUDY    49  45  83 N9        30.08R
DE KALB*       MOSUNNY   51  43  75 NE13      30.07S
$$

ILZ005-006-012>014-019>023-021500-
NORTHEAST ILLINOIS

CITY           SKY/WX    TMP DP  RH WIND       PRES   REMARKS
CHICAGO-OHARE  MOSUNNY   50  37  61 NE15      30.05R
CHICAGO-MIDWAY MOSUNNY   51  37  58 NE17      30.05R
AURORA         PTSUNNY   53  40  61 NE12G21   30.06R
LANSING*       MOSUNNY   49  40  73 NE13      30.05R
JOLIET*        MOSUNNY   52  40  64 NE13      30.06R
WAUKEGAN       SUNNY     50  39  66 N8        30.06S
DUPAGE AIRPORT SUNNY     51  38  60 NE14G21   30.05R
KANKAKEE*      CLOUDY    50  43  77 NE12G20   30.04F
WHEELING       SUNNY     50  36  58 NE12      30.07S
MORRIS*        PTSUNNY   51  41  69 NE3       30.04F
ROMEOVILLE*    SUNNY     50  38  62 NE13      30.05R
NORTHERLY ISL    N/A     47  39  74 MISG        N/A
NORTHERLY ISL    N/A     47  39  74 MISG        N/A
$$

LMZ740>746-021500-
SOUTHERN LAKE MICHIGAN

STATION/POSITION SKY/WX   TEMP    WIND        PRES    VSBY  WAVE
                          AIR SEA DIR/SP/G                  HT/PER
                          (F)     (DEG/KT/KT) (MB)    (MI)  (FT/S)
SOUTHERN BUOY              42 40   30/  6/  8 1017.9F         1/ 4
HARRISON CRIB              45      10/ 15/ 17   N/A
BURNHAM HARBOR             47      10/ 14/ 14   N/A
CALUMET HARBOR             46      10/ 10/ 16 1016.9F
BURNS HARBOR               46      50/ 14/ 18 1017.6F
MICHIGAN CITY              45      20/ 17/ 18   N/A
ST. JOSEPH                 46 47                N/A           3/ 4
$$

ILZ025>027-034>036-040-047-049-050-058-095>099-021500-
WEST-CENTRAL ILLINOIS

CITY           SKY/WX    TMP DP  RH WIND       PRES   REMARKS
QUINCY         CLOUDY    52  48  86 N9        30.06R
GALESBURG*     CLOUDY    48  44  87 N10       30.08R
MACOMB*        CLOUDY    49  48  96 N9        30.08S
JACKSONVILLE*  CLOUDY    52  47  84 N8        30.05R
PITTSFIELD*    CLOUDY    51  47  86 N6        30.07R
$$

ILZ028>032-037-038-041>044-048-051>054-059>061-021500-
CENTRAL ILLINOIS

CITY           SKY/WX    TMP DP  RH WIND       PRES   REMARKS
PONTIAC        PTSUNNY   50  45  84 NE14      30.05R
BLOOMINGTON    CLOUDY    47  47 100 N14       30.04S
DECATUR        CLOUDY    50  47  89 N12       30.04R FOG
PEORIA         CLOUDY    49  43  80 NE8       30.06R
LACON*         CLOUDY    50  42  76 NE8       30.05F
LINCOLN*       CLOUDY    49  47  92 N10       30.04R
SPRINGFIELD    CLOUDY    52  47  83 N6        30.04R
TAYLORVILLE    CLOUDY    48  46  93 N12       30.04R
$$

ILZ033-039-045-046-055>057-062-063-021500-
EAST-CENTRAL ILLINOIS

CITY           SKY/WX    TMP DP  RH WIND       PRES   REMARKS
CHAMPAIGN      CLOUDY    49  45  86 N15       30.00R
RANTOUL*       CLOUDY    49  46  88 N18       29.99F
MATTOON        CLOUDY    51  46  83 NW7       30.02R
PARIS*         CLOUDY    50  49  95 CALM      30.00F FOG
$$

ILZ079-100>102-021500-
SOUTHWEST ILLINOIS

CITY           SKY/WX    TMP DP  RH WIND       PRES   REMARKS
ALTON          CLOUDY    52  46  82 N9        30.04F
BELLEVILLE     CLOUDY    54  50  87 N5        30.04R
CAHOKIA*       CLOUDY    54  47  77 NW7       30.06R
SPARTA*        CLOUDY    54  47  76 N6        30.06R
$$

ILZ064>066-069>071-074>076-080>082-084>086-088>090-092>094-021500-
SOUTH-CENTRAL ILLINOIS

CITY           SKY/WX    TMP DP  RH WIND       PRES   REMARKS
CARBONDALE     MOSUNNY   57  47  69 VRB3      30.04R
CAIRO*         CLOUDY    58  51  77 N5        30.03R
EFFINGHAM*     CLOUDY    51  47  86 N6        30.04R
MARION         PTSUNNY   57  50  77 N7        30.04R
MT. VERNON     CLOUDY    54  46  76 CALM      30.03R
CENTRALIA*     CLOUDY    54  50  89 N5        30.03R
SALEM*         CLOUDY    54  50  87 NW7       30.02F
METROPOLIS*    CLOUDY    58  51  79 CALM      30.03R
$$

ILZ067-068-072-073-078-083-087-091-021500-
SOUTHEAST ILLINOIS

CITY           SKY/WX    TMP DP  RH WIND       PRES   REMARKS
LAWRENCEVILLE  CLOUDY    56  49  77 E5        29.99F
FLORA*         CLOUDY    55  49  79 N6        30.02S
FAIRFIELD*     CLOUDY    55  50  82 CALM      30.01S
HARRISBURG*    CLOUDY    57  50  77 N6        30.01F
ROBINSON*      CLOUDY    53  48  83 N5        30.00F
CARMI*         CLOUDY    56  51  82 W3        30.01R
$$

ABBREVIATIONS USED IN REMARKS
   TC - TEMPERATURE IN CELSIUS
  WCI - WIND CHILL INDEX
   HX - HEAT INDEX
  VSB - VISIBILITY
$$





USA.gov is the U.S. government's official web portal to all federal, state and local government web resources and services.